M I D A S
Marine Information and Data Acquisition System
Tripno 2092 of the Zeeleeuw from 2011-01-27 07:49:23 to 2011-01-27 16:19:56
Back to CruiseResearch ActivitiesStationsMapUnderway DataData graphs

EquipmentUnitsComments
TimeDGPSUTC
LatitudeDGPSDM.mWGS84
LongitudeDGPSDM.mWGS84
SpeedMeteo Stationm/sRelative wind speed
DirectionMeteo StationdegRelative wind direction
TemperatureMeteo Stationdeg CelciusAir temperature
PressureMeteo StationPaAtmospheric pressure
HumidityMeteo Station%Relative humidity
Missing or incorrect values are displayed as -999
Metereological data collected by the RV Zeeleeuw from 2011-01-27 07:50:34 to 2011-01-27 16:27:18
                                                                                    Next 1000 lines
Time Latitude Longitude Speed Direction Temperature Pressure Humidity
2011-01-27 07:50:43 51°13.661 2°55.956 0.1 22 0.9 101920 43
2011-01-27 07:50:48 51°13.662 2°55.952 0.7 285 0.9 101920 43
2011-01-27 07:50:53 51°13.663 2°55.947 0.2 36 0.9 101920 42
2011-01-27 07:50:59 51°13.665 2°55.94 0.1 283 0.9 101920 42
2011-01-27 07:51:04 51°13.666 2°55.933 0.2 250 0.9 101920 42
2011-01-27 07:51:09 51°13.667 2°55.925 0.1 284 0.9 101920 42
2011-01-27 07:51:14 51°13.669 2°55.917 0.1 251 1 101920 42
2011-01-27 07:51:19 51°13.672 2°55.909 -999 284 1 101920 42
2011-01-27 07:51:24 51°13.674 2°55.899 1.5 244 0.9 101920 42
2011-01-27 07:51:30 51°13.677 2°55.887 0.2 76 0.9 101920 42
2011-01-27 07:51:34 51°13.68 2°55.879 0.1 24 1 101930 42
2011-01-27 07:51:39 51°13.682 2°55.869 0.1 289 1 101930 42
2011-01-27 07:51:44 51°13.685 2°55.858 0.1 254 0.9 101920 43
2011-01-27 07:51:50 51°13.688 2°55.846 1.1 287 0.9 101920 43
2011-01-27 07:51:54 51°13.69 2°55.837 1.1 265 0.9 101920 41
2011-01-27 07:51:59 51°13.692 2°55.827 0.5 284 0.9 101920 41
2011-01-27 07:52:04 51°13.695 2°55.818 0.2 42 1 101920 42
2011-01-27 07:52:09 51°13.697 2°55.807 1.5 285 1 101920 42
2011-01-27 07:52:15 51°13.699 2°55.795 1.7 259 1 101920 43
2011-01-27 07:52:19 51°13.701 2°55.787 2 280 1 101920 43
2011-01-27 07:52:24 51°13.704 2°55.777 0.8 261 1 101920 43
2011-01-27 07:52:29 51°13.707 2°55.767 1.8 279 1 101920 43
2011-01-27 07:52:34 51°13.71 2°55.758 0.5 265 1 101920 43
2011-01-27 07:52:39 51°13.713 2°55.749 0.1 279 1 101920 43
2011-01-27 07:52:44 51°13.716 2°55.74 0.7 31 1 101920 42
2011-01-27 07:52:49 51°13.72 2°55.732 2.5 282 1 101920 42
2011-01-27 07:52:54 51°13.724 2°55.724 2.3 265 0.9 101920 42
2011-01-27 07:52:58 51°13.728 2°55.718 2.7 79 0.9 101920 42
2011-01-27 07:53:02 51°13.731 2°55.713 1.3 26 1 101920 43
2011-01-27 07:53:09 51°13.741 2°55.703 3.8 75 1 101920 43
2011-01-27 07:53:14 51°13.745 2°55.696 3.9 24 1 101920 42
2011-01-27 07:53:17 51°13.748 2°55.691 3.9 75 1 101920 42
2011-01-27 07:53:17 51°13.748 2°55.691 2.6 27 1 101920 42
2011-01-27 07:53:17 51°13.748 2°55.691 2.5 76 1 101920 42
2011-01-27 07:53:17 51°13.748 2°55.691 1.1 36 1 101930 43
2011-01-27 07:53:39 51°13.774 2°55.666 2.4 294 1 101930 43
2011-01-27 07:53:44 51°13.782 2°55.659 3.2 24 1 101920 42
2011-01-27 07:53:50 51°13.791 2°55.654 4.4 75 1 101920 42
2011-01-27 07:53:54 51°13.797 2°55.65 3.6 27 1 101930 41
2011-01-27 07:53:59 51°13.805 2°55.645 4.6 74 1 101930 41
2011-01-27 07:54:04 51°13.814 2°55.64 4.1 19 1 101930 43
2011-01-27 07:54:10 51°13.823 2°55.636 6.5 73 1 101930 43
2011-01-27 07:54:14 51°13.83 2°55.634 6.5 19 1 101930 42
2011-01-27 07:54:19 51°13.838 2°55.631 4.7 75 1 101930 42
2011-01-27 07:54:23 51°13.845 2°55.629 6.4 21 1 101930 42
2011-01-27 07:54:29 51°13.856 2°55.627 5.6 79 1 101930 42
2011-01-27 07:54:34 51°13.863 2°55.625 5.6 33 1 101930 42
2011-01-27 07:54:39 51°13.871 2°55.624 5.5 80 1 101930 42
2011-01-27 07:54:44 51°13.879 2°55.623 4.7 18 1 101920 42
2011-01-27 07:54:49 51°13.887 2°55.623 3.6 73 1 101920 42
2011-01-27 07:54:54 51°13.895 2°55.622 4.1 32 1 101930 42
2011-01-27 07:54:59 51°13.901 2°55.621 2.8 78 1 101930 42
2011-01-27 07:55:04 51°13.908 2°55.623 3.3 19 1 101930 43
2011-01-27 07:55:05 51°13.909 2°55.623 2.5 80 1 101930 43
2011-01-27 07:55:05 51°13.909 2°55.623 1 37 1 101920 42
2011-01-27 07:55:19 51°13.926 2°55.63 0.2 77 1 101920 42
2011-01-27 07:55:24 51°13.932 2°55.632 0.1 36 1 101930 43
2011-01-27 07:55:29 51°13.937 2°55.634 0.1 76 1 101930 43
2011-01-27 07:55:33 51°13.941 2°55.636 0.1 31 1 101930 43
2011-01-27 07:55:38 51°13.946 2°55.638 0.1 77 1 101930 43
2011-01-27 07:55:43 51°13.95 2°55.64 1.6 26 1 101920 43
2011-01-27 07:55:48 51°13.954 2°55.641 1.6 77 1 101920 43
2011-01-27 07:55:53 51°13.957 2°55.642 1.4 35 1 101920 43
2011-01-27 07:55:58 51°13.959 2°55.644 0.3 80 1 101920 43
2011-01-27 07:56:03 51°13.96 2°55.645 0.2 21 1 101930 43
2011-01-27 07:56:07 51°13.961 2°55.646 0.1 77 1 101930 43
2011-01-27 07:56:12 51°13.962 2°55.646 -999 22 1 101920 42
2011-01-27 07:56:17 51°13.962 2°55.647 -999 76 1 101920 42
2011-01-27 07:56:22 51°13.963 2°55.647 2 26 1 101920 42
2011-01-27 07:56:27 51°13.964 2°55.647 0.2 77 1 101920 42
2011-01-27 07:56:31 51°13.964 2°55.647 0.1 21 1.1 101930 43
2011-01-27 07:56:36 51°13.964 2°55.646 0.1 76 1.1 101930 43
2011-01-27 07:56:41 51°13.964 2°55.644 0.5 34 1.1 101920 43
2011-01-27 07:56:46 51°13.964 2°55.641 0.1 40 1.1 101920 43
2011-01-27 07:56:51 51°13.964 2°55.637 0.1 42 1.1 101920 43
2011-01-27 07:56:56 51°13.965 2°55.632 0.3 34 1.1 101920 43
2011-01-27 07:57:01 51°13.965 2°55.627 0.1 27 1.1 101920 43
2011-01-27 07:57:05 51°13.966 2°55.622 0.1 24 1.1 101920 43
2011-01-27 07:57:11 51°13.968 2°55.613 -999 6 1.1 101920 43
2011-01-27 07:57:15 51°13.97 2°55.607 -999 359 1.1 101920 43
2011-01-27 07:57:21 51°13.973 2°55.596 -999 6 1.1 101920 43
2011-01-27 07:57:26 51°13.977 2°55.587 -999 6 1.1 101920 43
2011-01-27 07:57:31 51°13.982 2°55.577 3.1 355 1.1 101920 43
2011-01-27 07:57:36 51°13.987 2°55.566 2.9 1 1.1 101920 43
2011-01-27 07:57:41 51°13.993 2°55.555 3.3 353 1.1 101920 43
2011-01-27 07:57:46 51°14 2°55.544 3.1 359 1.1 101920 43
2011-01-27 07:57:46 51°14 2°55.544 5 1 1.1 101920 43
2011-01-27 07:57:46 51°14 2°55.544 5.1 351 1.1 101920 43
2011-01-27 07:57:46 51°14 2°55.544 4.3 346 1.1 101920 42
2011-01-27 07:58:06 51°14.035 2°55.499 4.8 356 1.1 101920 42
2011-01-27 07:58:11 51°14.046 2°55.49 5 351 1.1 101920 43
2011-01-27 07:58:16 51°14.057 2°55.482 5.6 353 1.1 101920 43
2011-01-27 07:58:21 51°14.067 2°55.472 6.7 354 1.1 101920 43
2011-01-27 07:58:26 51°14.079 2°55.462 5.4 283 1.1 101920 43
2011-01-27 07:58:31 51°14.09 2°55.452 0.1 352 1.1 101910 43
2011-01-27 07:58:36 51°14.102 2°55.442 0.1 347 1.1 101910 43
2011-01-27 07:58:41 51°14.114 2°55.432 0.1 351 1.1 101910 43
2011-01-27 07:58:46 51°14.126 2°55.421 -999 349 1.1 101910 43
2011-01-27 07:58:51 51°14.138 2°55.411 5.7 358 1.1 101910 42
2011-01-27 07:58:56 51°14.15 2°55.4 6.2 2 1.1 101910 42
2011-01-27 07:59:01 51°14.162 2°55.39 5.7 352 1.1 101910 41
2011-01-27 07:59:06 51°14.174 2°55.379 7.3 353 1.1 101910 41
2011-01-27 07:59:11 51°14.187 2°55.368 6.4 354 1.1 101910 43
2011-01-27 07:59:16 51°14.199 2°55.356 7.6 353 1.1 101910 43
2011-01-27 07:59:22 51°14.213 2°55.342 6.4 353 1.1 101910 42
2011-01-27 07:59:27 51°14.226 2°55.33 7.8 353 1.1 101910 42
2011-01-27 07:59:32 51°14.238 2°55.317 7.6 354 1.1 101910 43
2011-01-27 07:59:38 51°14.253 2°55.302 5.9 355 1.1 101910 43
2011-01-27 07:59:43 51°14.265 2°55.289 6.3 358 1.1 101910 42
2011-01-27 07:59:48 51°14.278 2°55.277 8.1 359 1.1 101910 42
2011-01-27 07:59:53 51°14.29 2°55.264 7.6 355 1.1 101910 42
2011-01-27 07:59:58 51°14.303 2°55.251 5.8 356 1.1 101910 42
2011-01-27 08:00:03 51°14.315 2°55.238 7.6 359 1.1 101910 43
2011-01-27 08:00:07 51°14.325 2°55.228 7.4 358 1.1 101910 43
2011-01-27 08:00:13 51°14.34 2°55.211 6.8 359 1.1 101910 42
2011-01-27 08:00:18 51°14.353 2°55.198 7.2 2 1.1 101910 42
2011-01-27 08:00:23 51°14.365 2°55.185 7.5 3 1.1 101910 42
2011-01-27 08:00:28 51°14.377 2°55.171 5.9 3 1.1 101910 42
2011-01-27 08:00:33 51°14.39 2°55.157 5 358 1.1 101900 44
2011-01-27 08:00:38 51°14.402 2°55.143 5.6 355 1.1 101900 44
2011-01-27 08:00:43 51°14.415 2°55.13 6.9 358 1.2 101910 44
2011-01-27 08:00:47 51°14.426 2°55.119 6.6 356 1.2 101910 44
2011-01-27 08:00:52 51°14.439 2°55.105 8.7 1 1.2 101910 44
2011-01-27 08:00:57 51°14.452 2°55.091 9 2 1.2 101910 44
2011-01-27 08:01:03 51°14.468 2°55.074 9.9 355 1.2 101910 44
2011-01-27 08:01:08 51°14.481 2°55.059 5.3 4 1.2 101910 44
2011-01-27 08:01:13 51°14.495 2°55.045 6.8 1 1.3 101910 44
2011-01-27 08:01:18 51°14.508 2°55.03 5.9 359 1.3 101910 44
2011-01-27 08:01:23 51°14.521 2°55.015 8.4 359 1.3 101910 43
2011-01-27 08:01:27 51°14.532 2°55.001 7.8 1 1.3 101910 43
2011-01-27 08:01:32 51°14.546 2°54.985 7.6 1 1.3 101900 44
2011-01-27 08:01:37 51°14.56 2°54.969 8 -999 1.3 101900 44
2011-01-27 08:01:42 51°14.574 2°54.952 6.7 357 1.4 101910 43
2011-01-27 08:01:47 51°14.589 2°54.936 11.8 356 1.4 101910 43
2011-01-27 08:01:51 51°14.6 2°54.922 11.5 358 1.4 101900 44
2011-01-27 08:01:56 51°14.615 2°54.906 12.5 355 1.4 101900 44
2011-01-27 08:02:01 51°14.629 2°54.889 9.8 360 1.4 101900 44
2011-01-27 08:02:06 51°14.643 2°54.872 6.2 1 1.4 101900 44
2011-01-27 08:02:11 51°14.658 2°54.856 8 358 1.4 101890 44
2011-01-27 08:02:16 51°14.673 2°54.84 10.1 357 1.4 101890 44
2011-01-27 08:02:20 51°14.685 2°54.828 9 357 1.5 101880 44
2011-01-27 08:02:26 51°14.703 2°54.809 9.7 357 1.5 101880 44
2011-01-27 08:02:31 51°14.718 2°54.794 9.1 360 1.5 101900 43
2011-01-27 08:02:37 51°14.736 2°54.776 8.5 360 1.5 101900 43
2011-01-27 08:02:43 51°14.754 2°54.757 8.3 359 1.5 101890 44
2011-01-27 08:02:48 51°14.769 2°54.741 11.2 2 1.5 101890 44
2011-01-27 08:02:53 51°14.784 2°54.725 9.5 5 1.5 101890 43
2011-01-27 08:02:59 51°14.801 2°54.705 7.6 4 1.5 101890 43
2011-01-27 08:03:03 51°14.813 2°54.691 6.6 1 1.5 101890 42
2011-01-27 08:03:08 51°14.828 2°54.674 8.8 -999 1.5 101890 42
2011-01-27 08:03:14 51°14.845 2°54.653 7.9 4 1.5 101870 43
2011-01-27 08:03:19 51°14.86 2°54.636 6.8 3 1.5 101870 43
2011-01-27 08:03:23 51°14.872 2°54.623 7.7 4 1.5 101880 43
2011-01-27 08:03:29 51°14.89 2°54.604 7 6 1.5 101880 43
2011-01-27 08:03:34 51°14.905 2°54.588 6.7 3 1.6 101890 42
2011-01-27 08:03:39 51°14.92 2°54.571 8.5 -999 1.6 101890 42
2011-01-27 08:03:44 51°14.935 2°54.555 7.4 1 1.6 101890 43
2011-01-27 08:03:49 51°14.95 2°54.539 6.7 3 1.6 101890 43
2011-01-27 08:03:54 51°14.965 2°54.522 7.8 6 1.6 101890 43
2011-01-27 08:03:59 51°14.979 2°54.505 10.4 358 1.6 101890 43
2011-01-27 08:04:03 51°14.991 2°54.492 9.1 2 1.6 101890 41
2011-01-27 08:04:08 51°15.006 2°54.476 7.7 2 1.6 101890 41
2011-01-27 08:04:13 51°15.02 2°54.458 7.7 1 1.6 101890 42
2011-01-27 08:04:18 51°15.035 2°54.442 8.6 1 1.6 101890 42
2011-01-27 08:04:23 51°15.05 2°54.425 8.8 5 1.6 101880 41
2011-01-27 08:04:27 51°15.061 2°54.411 6.8 3 1.6 101880 41
2011-01-27 08:04:32 51°15.076 2°54.394 9.3 360 1.6 101890 42
2011-01-27 08:04:37 51°15.091 2°54.377 8.5 2 1.6 101890 42
2011-01-27 08:04:42 51°15.105 2°54.36 7.6 1 1.7 101890 42
2011-01-27 08:04:47 51°15.12 2°54.343 7.8 3 1.7 101890 42
2011-01-27 08:04:51 51°15.132 2°54.329 9.3 3 1.7 101890 42
2011-01-27 08:04:56 51°15.146 2°54.312 7.3 3 1.7 101890 42
2011-01-27 08:05:01 51°15.16 2°54.293 7.2 4 1.7 101900 41
2011-01-27 08:05:06 51°15.174 2°54.275 7.5 2 1.7 101900 41
2011-01-27 08:05:11 51°15.188 2°54.256 9 359 1.7 101890 42
2011-01-27 08:05:16 51°15.201 2°54.239 7.1 3 1.7 101890 42
2011-01-27 08:05:21 51°15.215 2°54.221 6.3 2 1.7 101890 41
2011-01-27 08:05:26 51°15.228 2°54.202 6.1 3 1.7 101890 41
2011-01-27 08:05:31 51°15.242 2°54.184 5.2 7 1.7 101910 42
2011-01-27 08:05:36 51°15.256 2°54.165 8.7 8 1.7 101910 42
2011-01-27 08:05:41 51°15.27 2°54.148 7.2 7 1.7 101910 42
2011-01-27 08:05:46 51°15.284 2°54.13 7.6 -999 1.7 101910 42
2011-01-27 08:05:51 51°15.298 2°54.112 9 6 1.7 101890 41
2011-01-27 08:05:56 51°15.312 2°54.094 8.7 4 1.7 101890 41
2011-01-27 08:06:01 51°15.326 2°54.076 9.2 358 1.7 101900 42
2011-01-27 08:06:06 51°15.34 2°54.058 8.3 3 1.7 101900 42
2011-01-27 08:06:11 51°15.354 2°54.041 9.6 360 1.7 101900 41
2011-01-27 08:06:15 51°15.366 2°54.026 9.1 356 1.7 101900 41
2011-01-27 08:06:21 51°15.383 2°54.005 7.5 6 1.7 101900 41
2011-01-27 08:06:26 51°15.398 2°53.988 8.1 359 1.7 101900 41
2011-01-27 08:06:31 51°15.413 2°53.97 8.1 359 1.7 101900 42
2011-01-27 08:06:35 51°15.424 2°53.956 8.4 3 1.7 101900 42
2011-01-27 08:06:41 51°15.442 2°53.935 7.4 7 1.7 101890 40
2011-01-27 08:06:46 51°15.456 2°53.917 7.5 1 1.7 101890 40
2011-01-27 08:06:51 51°15.471 2°53.899 7 1 1.7 101900 41
2011-01-27 08:06:56 51°15.485 2°53.881 7.6 4 1.7 101900 41
2011-01-27 08:07:00 51°15.497 2°53.867 5.9 6 1.7 101900 39
2011-01-27 08:07:06 51°15.513 2°53.845 6.9 5 1.7 101900 39
2011-01-27 08:07:11 51°15.528 2°53.827 7.2 2 1.7 101900 40
2011-01-27 08:07:15 51°15.539 2°53.813 7.2 3 1.7 101900 40
2011-01-27 08:07:21 51°15.557 2°53.791 6.6 4 1.7 101890 41
2011-01-27 08:07:26 51°15.571 2°53.774 7.1 6 1.7 101890 41
2011-01-27 08:07:31 51°15.586 2°53.756 6.7 1 1.7 101910 41
2011-01-27 08:07:36 51°15.6 2°53.738 9.5 2 1.7 101910 41
2011-01-27 08:07:41 51°15.614 2°53.719 6.6 4 1.7 101900 41
2011-01-27 08:07:46 51°15.628 2°53.701 6.1 4 1.7 101900 41
2011-01-27 08:07:51 51°15.642 2°53.683 7.1 5 1.8 101910 40
2011-01-27 08:07:56 51°15.657 2°53.665 8.3 8 1.8 101910 40
2011-01-27 08:08:01 51°15.671 2°53.647 8.1 6 1.8 101900 40
2011-01-27 08:08:06 51°15.686 2°53.629 9.1 7 1.8 101900 40
2011-01-27 08:08:11 51°15.7 2°53.61 7.8 8 1.8 101900 41
2011-01-27 08:08:16 51°15.714 2°53.592 7.3 5 1.8 101900 41
2011-01-27 08:08:21 51°15.729 2°53.574 8.7 5 1.8 101910 40
2011-01-27 08:08:26 51°15.743 2°53.557 9.1 6 1.8 101910 40
2011-01-27 08:08:31 51°15.758 2°53.54 8.5 4 1.8 101890 41
2011-01-27 08:08:35 51°15.771 2°53.528 9.1 -999 1.8 101890 41
2011-01-27 08:08:41 51°15.79 2°53.511 7.6 3 1.8 101900 41
2011-01-27 08:08:46 51°15.806 2°53.498 10.4 1 1.8 101900 41
2011-01-27 08:08:51 51°15.822 2°53.485 7 6 1.8 101910 41
2011-01-27 08:08:56 51°15.838 2°53.473 8.2 3 1.8 101910 41
2011-01-27 08:09:01 51°15.855 2°53.463 10.7 1 1.8 101900 40
2011-01-27 08:09:06 51°15.871 2°53.452 9.2 5 1.8 101900 40
2011-01-27 08:09:11 51°15.888 2°53.441 9.5 3 1.8 101900 40
2011-01-27 08:09:15 51°15.901 2°53.432 9.6 2 1.8 101900 40
2011-01-27 08:09:21 51°15.92 2°53.42 8.4 2 1.8 101890 40
2011-01-27 08:09:26 51°15.937 2°53.408 7.2 6 1.8 101890 40
2011-01-27 08:09:31 51°15.953 2°53.397 7.3 5 1.8 101890 39
2011-01-27 08:09:36 51°15.97 2°53.384 9.2 5 1.8 101890 39
2011-01-27 08:09:41 51°15.986 2°53.372 7.6 5 1.8 101900 39
2011-01-27 08:09:46 51°16.002 2°53.36 7.2 7 1.8 101900 39
2011-01-27 08:09:51 51°16.019 2°53.347 6.9 6 1.8 101880 40
2011-01-27 08:09:56 51°16.035 2°53.334 7.5 7 1.8 101880 40
2011-01-27 08:10:01 51°16.051 2°53.321 6.5 6 1.8 101900 39
2011-01-27 08:10:06 51°16.068 2°53.309 5.1 5 1.8 101900 39
2011-01-27 08:10:11 51°16.085 2°53.296 6.6 4 1.8 101890 40
2011-01-27 08:10:16 51°16.101 2°53.283 7.6 -999 1.8 101890 40
2011-01-27 08:10:21 51°16.117 2°53.27 8.6 2 1.8 101910 39
2011-01-27 08:10:26 51°16.134 2°53.257 8.8 5 1.8 101910 39
2011-01-27 08:10:31 51°16.15 2°53.244 7.2 5 1.8 101900 40
2011-01-27 08:10:35 51°16.163 2°53.234 7.1 3 1.8 101900 40
2011-01-27 08:10:41 51°16.183 2°53.218 10.4 2 1.9 101910 40
2011-01-27 08:10:46 51°16.198 2°53.205 8.9 2 1.9 101910 40
2011-01-27 08:10:51 51°16.214 2°53.191 9.2 2 2 101890 41
2011-01-27 08:10:55 51°16.227 2°53.181 9.6 4 2 101890 41
2011-01-27 08:11:01 51°16.247 2°53.165 8.9 6 2 101890 42
2011-01-27 08:11:06 51°16.263 2°53.152 9.5 -999 2 101890 42
2011-01-27 08:11:11 51°16.279 2°53.14 9.9 3 2 101900 41
2011-01-27 08:11:16 51°16.296 2°53.127 10.3 2 2 101900 41
2011-01-27 08:11:21 51°16.312 2°53.114 9.9 5 2 101890 41
2011-01-27 08:11:26 51°16.329 2°53.102 9.1 4 2 101890 41
2011-01-27 08:11:31 51°16.345 2°53.089 8.5 3 2 101900 41
2011-01-27 08:11:35 51°16.359 2°53.079 9.1 6 2 101900 41
2011-01-27 08:11:41 51°16.379 2°53.064 11.1 7 2 101880 41
2011-01-27 08:11:46 51°16.395 2°53.052 10.3 4 2 101880 41
2011-01-27 08:11:51 51°16.412 2°53.04 10.8 1 2 101880 41
2011-01-27 08:11:56 51°16.428 2°53.028 7.3 6 2 101880 41
2011-01-27 08:12:01 51°16.444 2°53.015 8.9 6 2 101880 41
2011-01-27 08:12:06 51°16.461 2°53.003 11.1 8 2 101880 41
2011-01-27 08:12:11 51°16.478 2°52.991 11.1 8 2 101890 41
2011-01-27 08:12:16 51°16.494 2°52.979 9.9 6 2 101890 41
2011-01-27 08:12:21 51°16.511 2°52.967 8.7 6 2 101890 40
2011-01-27 08:12:26 51°16.528 2°52.956 6.2 4 2 101890 40
2011-01-27 08:12:31 51°16.545 2°52.944 9.5 5 2 101890 41
2011-01-27 08:12:36 51°16.561 2°52.932 7.8 5 2 101890 41
2011-01-27 08:12:41 51°16.577 2°52.92 9.5 6 1.9 101900 39
2011-01-27 08:12:46 51°16.593 2°52.908 9 1 1.9 101900 39
2011-01-27 08:12:51 51°16.609 2°52.896 9.6 3 2 101900 41
2011-01-27 08:12:55 51°16.623 2°52.887 9 6 2 101900 41
2011-01-27 08:13:01 51°16.642 2°52.872 7.5 2 2 101900 41
2011-01-27 08:13:06 51°16.659 2°52.86 8.2 4 2 101900 41
2011-01-27 08:13:11 51°16.675 2°52.848 7.9 6 2 101910 41
2011-01-27 08:13:16 51°16.692 2°52.835 9.6 5 2 101910 41
2011-01-27 08:13:21 51°16.708 2°52.823 10.7 5 2 101890 40
2011-01-27 08:13:26 51°16.725 2°52.811 9.2 6 2 101890 40
2011-01-27 08:13:31 51°16.742 2°52.799 9.6 2 2 101900 41
2011-01-27 08:13:35 51°16.755 2°52.79 10 7 2 101900 41
2011-01-27 08:13:41 51°16.775 2°52.776 10.9 6 2.1 101880 40
2011-01-27 08:13:46 51°16.792 2°52.764 10.7 7 2.1 101880 40
2011-01-27 08:13:51 51°16.809 2°52.751 11.4 7 2.1 101890 40
2011-01-27 08:13:56 51°16.825 2°52.738 9.7 8 2.1 101890 40
2011-01-27 08:14:00 51°16.838 2°52.729 9 5 2 101890 41
2011-01-27 08:14:06 51°16.858 2°52.714 9.4 6 2 101890 41
2011-01-27 08:14:11 51°16.875 2°52.702 7 4 2 101890 41
2011-01-27 08:14:15 51°16.889 2°52.692 7.5 3 2 101890 41
2011-01-27 08:14:21 51°16.909 2°52.678 8.4 5 2 101900 40
2011-01-27 08:14:26 51°16.926 2°52.666 7.6 4 2 101900 40
2011-01-27 08:14:31 51°16.943 2°52.654 7 6 1.9 101900 40
2011-01-27 08:14:36 51°16.96 2°52.642 7.8 6 1.9 101900 40
2011-01-27 08:14:41 51°16.976 2°52.629 8 5 1.9 101900 39
2011-01-27 08:14:46 51°16.993 2°52.617 8.3 6 1.9 101900 39
2011-01-27 08:14:51 51°17.01 2°52.605 10 10 1.9 101910 39
2011-01-27 08:14:56 51°17.026 2°52.593 9.3 8 1.9 101910 39
2011-01-27 08:15:01 51°17.043 2°52.581 8.5 6 1.9 101910 39
2011-01-27 08:15:06 51°17.06 2°52.568 5.9 8 1.9 101910 39
2011-01-27 08:15:11 51°17.076 2°52.557 6 7 1.9 101910 40
2011-01-27 08:15:15 51°17.089 2°52.547 6.5 7 1.9 101910 40
2011-01-27 08:15:21 51°17.109 2°52.532 7.6 5 1.9 101910 39
2011-01-27 08:15:26 51°17.126 2°52.52 8.9 6 1.9 101910 39
2011-01-27 08:15:31 51°17.142 2°52.508 8.8 8 1.9 101910 38
2011-01-27 08:15:36 51°17.159 2°52.496 10.6 -999 1.9 101910 38
2011-01-27 08:15:41 51°17.175 2°52.484 9.5 10 1.9 101910 39
2011-01-27 08:15:46 51°17.192 2°52.471 8.4 9 1.9 101910 39
2011-01-27 08:15:51 51°17.209 2°52.459 7 7 1.9 101920 40
2011-01-27 08:15:55 51°17.222 2°52.449 11 9 1.9 101920 40
2011-01-27 08:16:01 51°17.242 2°52.435 10.4 10 1.9 101910 40
2011-01-27 08:16:06 51°17.259 2°52.423 8.8 11 1.9 101910 40
2011-01-27 08:16:11 51°17.276 2°52.41 8.4 12 2 101910 41
2011-01-27 08:16:16 51°17.293 2°52.398 7.5 12 2 101910 41
2011-01-27 08:16:21 51°17.309 2°52.386 9.2 10 2 101900 40
2011-01-27 08:16:26 51°17.326 2°52.374 5.2 5 2 101900 40
2011-01-27 08:16:31 51°17.343 2°52.362 7.4 7 2 101920 41
2011-01-27 08:16:36 51°17.359 2°52.35 6.7 6 2 101920 41
2011-01-27 08:16:41 51°17.376 2°52.338 5.9 4 2 101920 41
2011-01-27 08:16:46 51°17.393 2°52.326 8.2 6 2 101920 41
2011-01-27 08:16:51 51°17.409 2°52.314 8.7 7 2 101920 40
2011-01-27 08:16:56 51°17.426 2°52.301 5.4 5 2 101920 40
2011-01-27 08:17:01 51°17.443 2°52.289 7.9 1 2.1 101920 41
2011-01-27 08:17:06 51°17.46 2°52.276 10.4 2 2.1 101920 41
2011-01-27 08:17:11 51°17.476 2°52.264 12.2 2 2.1 101920 40
2011-01-27 08:17:15 51°17.489 2°52.253 9.5 4 2.1 101920 40
2011-01-27 08:17:21 51°17.51 2°52.238 8.9 5 2.1 101910 41
2011-01-27 08:17:26 51°17.526 2°52.225 8.9 1 2.1 101910 41
2011-01-27 08:17:31 51°17.543 2°52.212 9.6 4 2.1 101920 41
2011-01-27 08:17:35 51°17.557 2°52.202 11.3 5 2.1 101920 41
2011-01-27 08:17:41 51°17.577 2°52.186 9 6 2.1 101900 40
2011-01-27 08:17:46 51°17.593 2°52.174 8.9 4 2.1 101900 40
2011-01-27 08:17:51 51°17.61 2°52.16 8.3 7 2.1 101910 41
2011-01-27 08:17:56 51°17.627 2°52.147 8.7 6 2.1 101910 41
2011-01-27 08:18:01 51°17.643 2°52.134 8.8 6 2 101900 41
2011-01-27 08:18:06 51°17.66 2°52.122 7.6 5 2 101900 41
2011-01-27 08:18:11 51°17.677 2°52.108 9.9 7 2 101910 41
2011-01-27 08:18:15 51°17.691 2°52.098 9.2 6 2 101910 41
2011-01-27 08:18:21 51°17.711 2°52.084 9.3 6 2 101910 40
2011-01-27 08:18:26 51°17.727 2°52.072 6.8 6 2 101910 40
2011-01-27 08:18:31 51°17.744 2°52.059 8.3 2 1.9 101900 39
2011-01-27 08:18:36 51°17.761 2°52.047 8.3 6 1.9 101900 39
2011-01-27 08:18:41 51°17.777 2°52.034 9.3 7 1.9 101920 40
2011-01-27 08:18:46 51°17.794 2°52.022 9.3 6 1.9 101920 40
2011-01-27 08:18:51 51°17.811 2°52.01 10.7 5 1.9 101900 39
2011-01-27 08:18:55 51°17.824 2°52.002 8 6 1.9 101900 39
2011-01-27 08:19:01 51°17.845 2°51.991 10.6 4 1.9 101920 40
2011-01-27 08:19:06 51°17.862 2°51.984 12.3 2 1.9 101920 40
2011-01-27 08:19:11 51°17.88 2°51.977 12.3 359 2 101910 40
2011-01-27 08:19:16 51°17.898 2°51.971 12.5 356 2 101910 40
2011-01-27 08:19:21 51°17.915 2°51.965 11.9 359 2 101900 40
2011-01-27 08:19:26 51°17.933 2°51.959 11.4 360 2 101900 40
2011-01-27 08:19:31 51°17.951 2°51.953 14.3 356 2 101920 40
2011-01-27 08:19:36 51°17.968 2°51.948 12.6 355 2 101920 40
2011-01-27 08:19:41 51°17.985 2°51.942 14.8 358 2 101900 40
2011-01-27 08:19:46 51°18.003 2°51.938 12.6 360 2 101900 40
2011-01-27 08:19:51 51°18.021 2°51.932 11 -999 2 101890 41
2011-01-27 08:19:55 51°18.035 2°51.929 13.4 -999 2 101890 41
2011-01-27 08:20:01 51°18.057 2°51.922 11.5 3 2 101900 41
2011-01-27 08:20:06 51°18.075 2°51.917 10.7 359 2 101900 41
2011-01-27 08:20:11 51°18.093 2°51.912 13.4 359 2 101890 40
2011-01-27 08:20:16 51°18.111 2°51.907 14.3 358 2 101890 40
2011-01-27 08:20:21 51°18.129 2°51.902 12 358 2 101900 38
2011-01-27 08:20:26 51°18.148 2°51.897 10.7 357 2 101900 38
2011-01-27 08:20:31 51°18.166 2°51.892 11.8 2 2 101900 40
2011-01-27 08:20:36 51°18.184 2°51.887 11.4 -999 2 101900 40
2011-01-27 08:20:40 51°18.199 2°51.883 10.2 358 2 101910 40
2011-01-27 08:20:46 51°18.22 2°51.875 10.6 1 2 101910 40
2011-01-27 08:20:51 51°18.238 2°51.869 8.6 3 2 101890 40
2011-01-27 08:20:55 51°18.252 2°51.863 12.3 359 2 101890 40
2011-01-27 08:21:01 51°18.274 2°51.855 12.7 360 2 101910 41
2011-01-27 08:21:06 51°18.291 2°51.848 12 1 2 101910 41
2011-01-27 08:21:11 51°18.309 2°51.842 9.9 3 2 101920 40
2011-01-27 08:21:16 51°18.327 2°51.834 10.2 3 2 101920 40
2011-01-27 08:21:21 51°18.344 2°51.827 9.3 3 2 101910 41
2011-01-27 08:21:26 51°18.361 2°51.818 12.3 4 2 101910 41
2011-01-27 08:21:31 51°18.378 2°51.811 11.8 3 2.1 101910 40
2011-01-27 08:21:36 51°18.396 2°51.804 10.8 358 2.1 101910 40
2011-01-27 08:21:41 51°18.414 2°51.796 12.4 2 2.1 101890 41
2011-01-27 08:21:46 51°18.431 2°51.789 14.1 359 2.1 101890 41
2011-01-27 08:21:51 51°18.448 2°51.781 13.2 360 2 101900 39
2011-01-27 08:21:55 51°18.462 2°51.775 13 355 2 101900 39
2011-01-27 08:22:01 51°18.483 2°51.766 14.6 358 2 101910 40
2011-01-27 08:22:06 51°18.5 2°51.758 13.3 358 2 101910 40
2011-01-27 08:22:11 51°18.518 2°51.751 10.9 358 2 101920 39
2011-01-27 08:22:15 51°18.532 2°51.745 10.9 -999 2 101920 39
2011-01-27 08:22:21 51°18.553 2°51.736 13.1 357 2 101910 39
2011-01-27 08:22:26 51°18.57 2°51.728 11 358 2 101910 39
2011-01-27 08:22:31 51°18.588 2°51.72 11.7 -999 2 101910 39
2011-01-27 08:22:36 51°18.605 2°51.713 10.4 3 2 101910 39
2011-01-27 08:22:40 51°18.62 2°51.707 11.6 2 2 101910 40
2011-01-27 08:22:46 51°18.641 2°51.697 13 -999 2 101910 40
2011-01-27 08:22:51 51°18.658 2°51.69 9.3 1 2 101910 40
2011-01-27 08:22:55 51°18.672 2°51.684 10.5 2 2 101910 40
2011-01-27 08:23:01 51°18.694 2°51.674 11.9 2 2 101910 38
2011-01-27 08:23:06 51°18.711 2°51.667 9.5 5 2 101910 38
2011-01-27 08:23:11 51°18.729 2°51.66 8.7 7 2 101910 40
2011-01-27 08:23:16 51°18.746 2°51.652 9.1 3 2 101910 40
2011-01-27 08:23:20 51°18.761 2°51.646 9.9 2 2 101900 40
2011-01-27 08:23:26 51°18.782 2°51.637 12.3 2 2 101900 40
2011-01-27 08:23:31 51°18.799 2°51.629 10.6 -999 2 101920 40
2011-01-27 08:23:35 51°18.813 2°51.623 12.9 355 2 101920 40
2011-01-27 08:23:41 51°18.834 2°51.614 11.1 357 2 101920 40
2011-01-27 08:23:46 51°18.851 2°51.605 10.9 -999 2 101920 40
2011-01-27 08:23:51 51°18.869 2°51.597 14.3 359 2.1 101920 39
2011-01-27 08:23:56 51°18.887 2°51.589 14.7 1 2.1 101920 39
2011-01-27 08:24:01 51°18.904 2°51.581 11.5 -999 2 101930 40
2011-01-27 08:24:06 51°18.922 2°51.574 13.8 359 2 101930 40
2011-01-27 08:24:11 51°18.94 2°51.566 15.3 358 2.1 101910 40
2011-01-27 08:24:15 51°18.954 2°51.56 11.6 -999 2.1 101910 40
2011-01-27 08:24:21 51°18.976 2°51.55 11.9 1 2.1 101910 40
2011-01-27 08:24:26 51°18.993 2°51.543 10.4 2 2.1 101910 40
2011-01-27 08:24:31 51°19.01 2°51.536 11.8 4 2.1 101910 40
2011-01-27 08:24:36 51°19.027 2°51.528 11.3 -999 2.1 101910 40
2011-01-27 08:24:40 51°19.041 2°51.521 9.7 4 2.1 101910 39
2011-01-27 08:24:46 51°19.061 2°51.509 9.1 6 2.1 101910 39
2011-01-27 08:24:51 51°19.078 2°51.499 10.9 6 2 101930 40
2011-01-27 08:24:55 51°19.092 2°51.491 10.7 7 2 101930 40
2011-01-27 08:25:01 51°19.113 2°51.477 11 8 2 101920 40
2011-01-27 08:25:06 51°19.129 2°51.465 11.3 7 2 101920 40
2011-01-27 08:25:11 51°19.146 2°51.453 10.2 6 2 101930 39
2011-01-27 08:25:15 51°19.16 2°51.444 12.4 8 2 101930 39
2011-01-27 08:25:21 51°19.18 2°51.429 9.5 7 2 101920 39
2011-01-27 08:25:26 51°19.197 2°51.417 11.1 9 2 101920 39
2011-01-27 08:25:31 51°19.214 2°51.405 9.9 6 2 101930 39
2011-01-27 08:25:36 51°19.231 2°51.393 9.2 6 2 101930 39
2011-01-27 08:25:41 51°19.248 2°51.381 9.6 -999 2 101920 39
2011-01-27 08:25:46 51°19.265 2°51.369 8.5 6 2 101920 39
2011-01-27 08:25:51 51°19.283 2°51.357 9.3 5 2 101940 40
2011-01-27 08:25:56 51°19.3 2°51.345 9.5 2 2 101940 40
2011-01-27 08:26:01 51°19.317 2°51.334 11.3 2 2 101950 39
2011-01-27 08:26:06 51°19.334 2°51.321 10.6 2 2 101950 39
2011-01-27 08:26:11 51°19.351 2°51.31 10.3 3 2.1 101940 40
2011-01-27 08:26:16 51°19.368 2°51.297 8.5 4 2.1 101940 40
2011-01-27 08:26:21 51°19.385 2°51.285 8 2 2.1 101920 40
2011-01-27 08:26:26 51°19.401 2°51.273 8.8 2 2.1 101920 40
2011-01-27 08:26:31 51°19.418 2°51.26 7.8 3 2.1 101930 39
2011-01-27 08:26:36 51°19.434 2°51.247 12.3 -999 2.1 101930 39
2011-01-27 08:26:41 51°19.451 2°51.235 11 3 2.1 101930 40
2011-01-27 08:26:46 51°19.468 2°51.223 10.8 4 2.1 101930 40
2011-01-27 08:26:51 51°19.485 2°51.211 9.5 5 2.1 101950 39
2011-01-27 08:26:55 51°19.499 2°51.201 8.3 6 2.1 101950 39
2011-01-27 08:27:01 51°19.519 2°51.187 9.2 6 2.1 101920 39
2011-01-27 08:27:06 51°19.536 2°51.175 11.4 5 2.1 101920 39
2011-01-27 08:27:11 51°19.554 2°51.164 9 6 2.1 101930 39
2011-01-27 08:27:16 51°19.57 2°51.151 8.4 4 2.1 101930 39
2011-01-27 08:27:21 51°19.587 2°51.139 8.1 5 2.1 101920 39
2011-01-27 08:27:26 51°19.605 2°51.128 8.8 6 2.1 101920 39
2011-01-27 08:27:31 51°19.622 2°51.115 8.8 6 2.1 101940 40
2011-01-27 08:27:36 51°19.639 2°51.103 10.2 6 2.1 101940 40
2011-01-27 08:27:40 51°19.652 2°51.093 9.7 8 2.1 101940 39
2011-01-27 08:27:46 51°19.673 2°51.079 8.3 7 2.1 101940 39
2011-01-27 08:27:51 51°19.689 2°51.067 6.9 3 2 101950 39
2011-01-27 08:27:55 51°19.703 2°51.057 7.4 5 2 101950 39
2011-01-27 08:28:01 51°19.723 2°51.042 9.9 4 2 101950 39
2011-01-27 08:28:06 51°19.74 2°51.029 8.5 4 2 101950 39
2011-01-27 08:28:11 51°19.757 2°51.018 8.1 4 2 101930 38
2011-01-27 08:28:16 51°19.774 2°51.005 7.7 1 2 101930 38
2011-01-27 08:28:21 51°19.791 2°50.993 9 2 2 101940 39
2011-01-27 08:28:26 51°19.808 2°50.98 9.8 1 2 101940 39
2011-01-27 08:28:31 51°19.825 2°50.967 12.6 4 2.1 101950 39
2011-01-27 08:28:36 51°19.842 2°50.955 10.1 1 2.1 101950 39
2011-01-27 08:28:41 51°19.859 2°50.942 10 5 2.1 101950 40
2011-01-27 08:28:46 51°19.876 2°50.93 9.9 2 2.1 101950 40
2011-01-27 08:28:51 51°19.892 2°50.918 11.7 6 2.1 101940 40
2011-01-27 08:28:56 51°19.909 2°50.906 12 3 2.1 101940 40
2011-01-27 08:29:01 51°19.925 2°50.894 9.8 2 2.2 101940 41
2011-01-27 08:29:06 51°19.941 2°50.882 11.1 3 2.2 101940 41
2011-01-27 08:29:11 51°19.958 2°50.87 9.8 5 2.2 101950 40
2011-01-27 08:29:15 51°19.971 2°50.86 9.3 6 2.2 101950 40
2011-01-27 08:29:21 51°19.992 2°50.846 10.2 2 2.1 101940 40
2011-01-27 08:29:26 51°20.009 2°50.833 9.6 6 2.1 101940 40
2011-01-27 08:29:31 51°20.025 2°50.821 8.4 3 2.1 101930 39
2011-01-27 08:29:36 51°20.042 2°50.81 10.2 6 2.1 101930 39
2011-01-27 08:29:40 51°20.055 2°50.801 9.6 7 2.1 101950 39
2011-01-27 08:29:46 51°20.075 2°50.788 7.9 4 2.1 101950 39
2011-01-27 08:29:51 51°20.092 2°50.777 10.5 5 2.1 101930 40
2011-01-27 08:29:55 51°20.105 2°50.768 10.9 8 2.1 101930 40
2011-01-27 08:30:01 51°20.126 2°50.753 9.5 4 2.1 101950 39
2011-01-27 08:30:06 51°20.143 2°50.742 8.1 358 2.1 101950 39
2011-01-27 08:30:11 51°20.16 2°50.73 10.1 3 2.1 101940 40
2011-01-27 08:30:16 51°20.177 2°50.718 9.9 2 2.1 101940 40
2011-01-27 08:30:21 51°20.194 2°50.706 10.9 3 2.1 101950 40
2011-01-27 08:30:26 51°20.212 2°50.695 11.3 1 2.1 101950 40
2011-01-27 08:30:31 51°20.229 2°50.683 13.9 359 2.2 101950 41
2011-01-27 08:30:35 51°20.243 2°50.675 12.3 357 2.2 101950 41
2011-01-27 08:30:41 51°20.264 2°50.66 12 359 2.2 101940 40
2011-01-27 08:30:46 51°20.281 2°50.649 11.9 1 2.2 101940 40
2011-01-27 08:30:51 51°20.298 2°50.636 11.6 4 2.2 101940 41
2011-01-27 08:30:56 51°20.315 2°50.624 9.2 4 2.2 101940 41
2011-01-27 08:31:01 51°20.331 2°50.611 10.5 360 2.2 101950 40
2011-01-27 08:31:06 51°20.349 2°50.599 10.7 2 2.2 101950 40
2011-01-27 08:31:11 51°20.366 2°50.588 9.3 4 2.2 101930 39
2011-01-27 08:31:16 51°20.383 2°50.577 11.9 1 2.2 101930 39
2011-01-27 08:31:21 51°20.4 2°50.564 11 1 2.2 101920 40
2011-01-27 08:31:26 51°20.417 2°50.553 10.1 3 2.2 101920 40
2011-01-27 08:31:31 51°20.434 2°50.541 9.8 2 2.2 101940 40
2011-01-27 08:31:35 51°20.448 2°50.532 10 2 2.2 101940 40
2011-01-27 08:31:41 51°20.468 2°50.516 11.6 360 2.2 101930 40
2011-01-27 08:31:46 51°20.485 2°50.504 9.7 2 2.2 101930 40
2011-01-27 08:31:51 51°20.501 2°50.491 12 1 2.2 101930 39
2011-01-27 08:31:55 51°20.514 2°50.48 11.2 358 2.2 101930 39
2011-01-27 08:32:01 51°20.535 2°50.465 10.4 1 2.1 101940 39
2011-01-27 08:32:06 51°20.551 2°50.453 10.2 6 2.1 101940 39
2011-01-27 08:32:11 51°20.567 2°50.44 9.2 2 2.2 101940 40
2011-01-27 08:32:16 51°20.583 2°50.429 8.5 5 2.2 101940 40
2011-01-27 08:32:21 51°20.6 2°50.417 9.2 2 2.2 101940 40
2011-01-27 08:32:26 51°20.616 2°50.406 8.7 1 2.2 101940 40
2011-01-27 08:32:31 51°20.633 2°50.394 10 356 2.1 101940 40
2011-01-27 08:32:36 51°20.649 2°50.382 13.2 359 2.1 101940 40
2011-01-27 08:32:41 51°20.665 2°50.37 12.4 360 2.1 101950 39
2011-01-27 08:32:46 51°20.682 2°50.357 9.9 4 2.1 101950 39
2011-01-27 08:32:51 51°20.698 2°50.344 9.6 2 2.2 101950 41
2011-01-27 08:32:56 51°20.714 2°50.333 12.1 4 2.2 101950 41
2011-01-27 08:33:01 51°20.731 2°50.32 9 1 2.2 101930 39
2011-01-27 08:33:06 51°20.747 2°50.308 12.7 356 2.2 101930 39
2011-01-27 08:33:11 51°20.764 2°50.295 13.3 358 2.2 101920 40
2011-01-27 08:33:16 51°20.78 2°50.283 11.4 1 2.2 101920 40
2011-01-27 08:33:21 51°20.797 2°50.271 14.1 358 2.2 101930 39
2011-01-27 08:33:26 51°20.814 2°50.258 12.4 359 2.2 101930 39
2011-01-27 08:33:31 51°20.83 2°50.246 11.9 -999 2.2 101940 41
2011-01-27 08:33:35 51°20.844 2°50.236 10.4 3 2.2 101940 41
2011-01-27 08:33:41 51°20.864 2°50.221 11.7 -999 2.2 101940 39
2011-01-27 08:33:46 51°20.881 2°50.209 12.2 358 2.2 101940 39
2011-01-27 08:33:51 51°20.897 2°50.198 10.7 359 2.1 101940 40
2011-01-27 08:33:56 51°20.914 2°50.186 9.3 3 2.1 101940 40
2011-01-27 08:34:01 51°20.931 2°50.174 11.6 2 2.1 101940 40
2011-01-27 08:34:06 51°20.947 2°50.161 13.1 3 2.1 101940 40
2011-01-27 08:34:11 51°20.964 2°50.148 10.9 1 2.2 101950 39
2011-01-27 08:34:16 51°20.98 2°50.136 10.4 2 2.2 101950 39
2011-01-27 08:34:20 51°20.994 2°50.125 13.3 3 2.1 101920 39
2011-01-27 08:34:26 51°21.013 2°50.111 14.3 3 2.1 101920 39
2011-01-27 08:34:31 51°21.03 2°50.099 8.9 2 2.2 101940 41
2011-01-27 08:34:35 51°21.042 2°50.089 13.5 359 2.2 101940 41
2011-01-27 08:34:41 51°21.062 2°50.074 13.5 2 2.2 101930 40
2011-01-27 08:34:46 51°21.078 2°50.062 10 2 2.2 101930 40
2011-01-27 08:34:51 51°21.095 2°50.05 9.6 4 2.2 101920 41
2011-01-27 08:34:56 51°21.112 2°50.037 13.6 360 2.2 101920 41
2011-01-27 08:35:01 51°21.129 2°50.025 13.8 1 2.2 101940 40
2011-01-27 08:35:06 51°21.146 2°50.012 9.6 2 2.2 101940 40
2011-01-27 08:35:11 51°21.162 2°49.999 9.1 359 2.2 101920 40
2011-01-27 08:35:16 51°21.179 2°49.986 13.8 -999 2.2 101920 40
2011-01-27 08:35:21 51°21.196 2°49.974 11 1 2.2 101940 39
2011-01-27 08:35:26 51°21.213 2°49.961 14.3 1 2.2 101940 39
2011-01-27 08:35:31 51°21.23 2°49.947 11.7 1 2.2 101940 39
2011-01-27 08:35:35 51°21.243 2°49.937 9.5 3 2.2 101940 39
2011-01-27 08:35:41 51°21.264 2°49.923 10 2 2.2 101920 39
2011-01-27 08:35:46 51°21.281 2°49.91 9 2 2.2 101920 39
2011-01-27 08:35:51 51°21.297 2°49.897 10.5 360 2.2 101940 39
2011-01-27 08:35:55 51°21.311 2°49.887 10 5 2.2 101940 39
2011-01-27 08:36:01 51°21.332 2°49.872 8.8 3 2.2 101950 39
2011-01-27 08:36:06 51°21.348 2°49.86 11.8 359 2.2 101950 39
2011-01-27 08:36:11 51°21.366 2°49.848 12.4 358 2.2 101940 40
2011-01-27 08:36:16 51°21.383 2°49.836 11.8 1 2.2 101940 40
2011-01-27 08:36:20 51°21.396 2°49.826 8.4 1 2.2 101940 39
2011-01-27 08:36:26 51°21.417 2°49.811 13.6 359 2.2 101940 39
2011-01-27 08:36:31 51°21.434 2°49.798 12.8 2 2.2 101950 40
2011-01-27 08:36:35 51°21.447 2°49.788 11.1 2 2.2 101950 40
2011-01-27 08:36:41 51°21.468 2°49.773 11.3 2 2.2 101950 40
2011-01-27 08:36:46 51°21.485 2°49.761 12.4 1 2.2 101950 40
2011-01-27 08:36:51 51°21.502 2°49.749 10.5 3 2.3 101930 40
2011-01-27 08:36:56 51°21.519 2°49.737 11.3 3 2.3 101930 40
2011-01-27 08:37:01 51°21.537 2°49.725 10.9 2 2.3 101930 41
2011-01-27 08:37:06 51°21.554 2°49.713 10.7 359 2.3 101930 41
2011-01-27 08:37:11 51°21.571 2°49.7 12.4 2 2.2 101930 39
2011-01-27 08:37:16 51°21.588 2°49.688 10.2 3 2.2 101930 39
2011-01-27 08:37:21 51°21.606 2°49.676 9.5 2 2.2 101930 39
2011-01-27 08:37:26 51°21.622 2°49.665 11.1 4 2.2 101930 39
2011-01-27 08:37:31 51°21.639 2°49.653 13.2 -999 2.2 101950 40
2011-01-27 08:37:36 51°21.655 2°49.641 12.1 358 2.2 101950 40
2011-01-27 08:37:41 51°21.672 2°49.63 11.5 360 2.2 101920 40
2011-01-27 08:37:46 51°21.689 2°49.617 13.6 358 2.2 101920 40
2011-01-27 08:37:51 51°21.706 2°49.605 11.1 359 2.2 101940 40
2011-01-27 08:37:56 51°21.723 2°49.593 13.9 359 2.2 101940 40
2011-01-27 08:38:01 51°21.74 2°49.581 12.8 358 2.2 101930 40
2011-01-27 08:38:06 51°21.757 2°49.569 11.4 359 2.2 101930 40
2011-01-27 08:38:11 51°21.774 2°49.557 10.1 -999 2.2 101930 40
2011-01-27 08:38:15 51°21.788 2°49.547 11 2 2.2 101930 40
2011-01-27 08:38:21 51°21.808 2°49.533 12.3 1 2.2 101920 39
2011-01-27 08:38:26 51°21.825 2°49.521 10.5 1 2.2 101920 39
2011-01-27 08:38:31 51°21.841 2°49.509 8.7 2 2.2 101920 40
2011-01-27 08:38:36 51°21.859 2°49.497 8.5 5 2.2 101920 40
2011-01-27 08:38:41 51°21.876 2°49.484 12 6 2.2 101920 39
2011-01-27 08:38:46 51°21.893 2°49.472 8.7 6 2.2 101920 39
2011-01-27 08:38:51 51°21.91 2°49.461 11.2 4 2.2 101930 40
2011-01-27 08:38:56 51°21.927 2°49.449 9.6 4 2.2 101930 40
2011-01-27 08:39:01 51°21.944 2°49.437 10.1 3 2.2 101930 39
2011-01-27 08:39:06 51°21.961 2°49.425 9.4 4 2.2 101930 39
2011-01-27 08:39:11 51°21.978 2°49.413 8.4 3 2.2 101930 40
2011-01-27 08:39:16 51°21.996 2°49.401 8.7 1 2.2 101930 40
2011-01-27 08:39:21 51°22.013 2°49.389 12.9 1 2.2 101940 40
2011-01-27 08:39:26 51°22.03 2°49.377 10.9 3 2.2 101940 40
2011-01-27 08:39:31 51°22.048 2°49.364 9.3 3 2.3 101930 40
2011-01-27 08:39:36 51°22.065 2°49.352 9.3 4 2.3 101930 40
2011-01-27 08:39:41 51°22.082 2°49.34 10.3 4 2.3 101940 41
2011-01-27 08:39:46 51°22.099 2°49.328 8.8 -999 2.3 101940 41
2011-01-27 08:39:51 51°22.116 2°49.316 11.4 1 2.3 101940 40
2011-01-27 08:39:55 51°22.13 2°49.306 10.8 -999 2.3 101940 40
2011-01-27 08:40:01 51°22.149 2°49.291 14.4 2 2.3 101940 41
2011-01-27 08:40:06 51°22.166 2°49.278 11.9 5 2.3 101940 41
2011-01-27 08:40:11 51°22.183 2°49.265 11.1 -999 2.3 101940 40
2011-01-27 08:40:15 51°22.196 2°49.255 12.8 3 2.3 101940 40
2011-01-27 08:40:21 51°22.217 2°49.24 11.3 359 2.3 101930 39
2011-01-27 08:40:26 51°22.233 2°49.228 11.5 1 2.3 101930 39
2011-01-27 08:40:31 51°22.251 2°49.216 11.1 4 2.3 101910 40
2011-01-27 08:40:35 51°22.264 2°49.206 12.4 1 2.3 101910 40
2011-01-27 08:40:41 51°22.284 2°49.192 12.3 1 2.2 101920 39
2011-01-27 08:40:46 51°22.302 2°49.181 9.2 2 2.2 101920 39
2011-01-27 08:40:51 51°22.319 2°49.169 9.7 2 2.2 101940 40
2011-01-27 08:40:56 51°22.336 2°49.157 11.4 359 2.2 101940 40
2011-01-27 08:41:01 51°22.353 2°49.146 9 1 2.2 101930 39
2011-01-27 08:41:06 51°22.37 2°49.133 9.8 3 2.2 101930 39
2011-01-27 08:41:11 51°22.387 2°49.121 8.7 1 2.2 101930 39
2011-01-27 08:41:16 51°22.404 2°49.109 12.5 -999 2.2 101930 39
2011-01-27 08:41:20 51°22.417 2°49.098 9.3 2 2.2 101940 38
2011-01-27 08:41:26 51°22.437 2°49.083 12.3 2 2.2 101940 38
2011-01-27 08:41:31 51°22.454 2°49.071 8.6 2 2.2 101920 40
2011-01-27 08:41:35 51°22.467 2°49.061 10.4 1 2.2 101920 40
2011-01-27 08:41:41 51°22.487 2°49.046 12.5 2 2.2 101950 38
2011-01-27 08:41:46 51°22.504 2°49.033 11.8 359 2.2 101950 38
2011-01-27 08:41:51 51°22.52 2°49.021 10.4 359 2.2 101930 39
2011-01-27 08:41:56 51°22.536 2°49.007 9.8 359 2.2 101930 39
2011-01-27 08:42:01 51°22.553 2°48.995 8.9 3 2.2 101930 39
2011-01-27 08:42:06 51°22.57 2°48.983 9.2 358 2.2 101930 39
2011-01-27 08:42:11 51°22.587 2°48.97 13.5 1 2.2 101950 39
2011-01-27 08:42:15 51°22.6 2°48.961 11.9 1 2.2 101950 39
2011-01-27 08:42:21 51°22.621 2°48.946 13.4 355 2.2 101940 39
2011-01-27 08:42:26 51°22.638 2°48.934 12.3 3 2.2 101940 39
2011-01-27 08:42:31 51°22.656 2°48.923 12.2 358 2.3 101940 39
2011-01-27 08:42:36 51°22.672 2°48.91 12.1 -999 2.3 101940 39
2011-01-27 08:42:40 51°22.686 2°48.901 11.9 -999 2.3 101940 40
2011-01-27 08:42:46 51°22.706 2°48.885 9.5 4 2.3 101940 40
2011-01-27 08:42:51 51°22.723 2°48.873 14.1 357 2.3 101920 40
2011-01-27 08:42:55 51°22.737 2°48.864 11.6 359 2.3 101920 40
2011-01-27 08:43:01 51°22.757 2°48.849 11.8 359 2.3 101940 40
2011-01-27 08:43:06 51°22.775 2°48.838 11.3 359 2.3 101940 40
2011-01-27 08:43:11 51°22.792 2°48.824 10.4 5 2.3 101930 39
2011-01-27 08:43:16 51°22.809 2°48.813 9.7 4 2.3 101930 39
2011-01-27 08:43:20 51°22.822 2°48.803 11 1 2.3 101950 40
2011-01-27 08:43:26 51°22.843 2°48.788 9.7 -999 2.3 101950 40
2011-01-27 08:43:31 51°22.86 2°48.775 11.4 -999 2.3 101930 39
2011-01-27 08:43:35 51°22.873 2°48.765 11 -999 2.3 101930 39
2011-01-27 08:43:41 51°22.893 2°48.75 11.5 -999 2.3 101930 40
2011-01-27 08:43:46 51°22.911 2°48.737 10.5 4 2.3 101930 40
2011-01-27 08:43:51 51°22.927 2°48.725 9.9 6 2.3 101950 40
2011-01-27 08:43:56 51°22.944 2°48.713 10.4 5 2.3 101950 40
2011-01-27 08:44:01 51°22.961 2°48.702 12.7 1 2.3 101950 40
2011-01-27 08:44:06 51°22.978 2°48.69 14.1 -999 2.3 101950 40
2011-01-27 08:44:11 51°22.994 2°48.678 11.4 5 2.3 101930 40
2011-01-27 08:44:16 51°23.011 2°48.666 13.2 360 2.3 101930 40
2011-01-27 08:44:21 51°23.027 2°48.653 11.6 359 2.3 101930 39
2011-01-27 08:44:26 51°23.044 2°48.641 10.5 1 2.3 101930 39
2011-01-27 08:44:31 51°23.061 2°48.628 11.4 4 2.3 101950 41
2011-01-27 08:44:35 51°23.074 2°48.617 11.2 -999 2.3 101950 41
2011-01-27 08:44:41 51°23.094 2°48.602 11.9 3 2.3 101950 40
2011-01-27 08:44:46 51°23.111 2°48.588 8.6 5 2.3 101950 40
2011-01-27 08:44:51 51°23.128 2°48.576 8.4 5 2.3 101950 40
2011-01-27 08:44:55 51°23.14 2°48.564 9.8 3 2.3 101950 40
2011-01-27 08:45:01 51°23.161 2°48.55 9.6 360 2.3 101950 40
2011-01-27 08:45:06 51°23.178 2°48.538 10.8 1 2.3 101950 40
2011-01-27 08:45:11 51°23.195 2°48.526 11.1 -999 2.3 101900 39
2011-01-27 08:45:16 51°23.212 2°48.514 9.6 359 2.3 101900 39
2011-01-27 08:45:20 51°23.226 2°48.504 11.4 359 2.4 101950 41
2011-01-27 08:45:26 51°23.246 2°48.489 8.4 359 2.4 101950 41
2011-01-27 08:45:31 51°23.263 2°48.476 10.6 360 2.4 101950 41
2011-01-27 08:45:35 51°23.277 2°48.466 9.6 359 2.4 101950 41
2011-01-27 08:45:41 51°23.297 2°48.451 10.9 359 2.4 101970 40
2011-01-27 08:45:46 51°23.313 2°48.437 11.7 1 2.4 101970 40
2011-01-27 08:45:51 51°23.331 2°48.426 13.8 358 2.4 101950 40
2011-01-27 08:45:56 51°23.347 2°48.413 12.8 2 2.4 101950 40
2011-01-27 08:46:01 51°23.364 2°48.401 13 1 2.4 101920 41
2011-01-27 08:46:06 51°23.381 2°48.39 13 359 2.4 101920 41
2011-01-27 08:46:11 51°23.398 2°48.378 12.6 -999 2.4 101930 39
2011-01-27 08:46:16 51°23.415 2°48.366 10.7 1 2.4 101930 39
2011-01-27 08:46:21 51°23.432 2°48.354 11.3 -999 2.3 101910 39
2011-01-27 08:46:26 51°23.449 2°48.343 11.9 359 2.3 101910 39
2011-01-27 08:46:31 51°23.466 2°48.331 11.6 2 2.4 101930 40
2011-01-27 08:46:35 51°23.48 2°48.322 10.3 4 2.4 101930 40
2011-01-27 08:46:41 51°23.5 2°48.308 10 4 2.3 101920 40
2011-01-27 08:46:46 51°23.517 2°48.296 12.1 6 2.3 101920 40
2011-01-27 08:46:51 51°23.534 2°48.284 8.9 4 2.3 101930 40
2011-01-27 08:46:55 51°23.547 2°48.276 10.1 2 2.3 101930 40
2011-01-27 08:47:01 51°23.567 2°48.261 10.9 5 2.4 101940 39
2011-01-27 08:47:06 51°23.584 2°48.249 9 2 2.4 101940 39
2011-01-27 08:47:11 51°23.601 2°48.237 8.6 1 2.3 101930 40
2011-01-27 08:47:15 51°23.614 2°48.228 8.8 2 2.3 101930 40
2011-01-27 08:47:21 51°23.634 2°48.212 8 3 2.4 101950 40
2011-01-27 08:47:26 51°23.65 2°48.202 11 -999 2.4 101950 40
2011-01-27 08:47:31 51°23.667 2°48.189 11.3 4 2.4 101950 40
2011-01-27 08:47:36 51°23.684 2°48.179 9.9 2 2.4 101950 40
2011-01-27 08:47:40 51°23.697 2°48.168 13 2 2.4 101940 40
2011-01-27 08:47:46 51°23.717 2°48.155 9.6 3 2.4 101940 40
2011-01-27 08:47:51 51°23.733 2°48.144 8.7 2 2.4 101940 39
2011-01-27 08:47:55 51°23.747 2°48.134 11.3 2 2.4 101940 39
2011-01-27 08:48:01 51°23.767 2°48.12 9.6 358 2.4 101940 40
2011-01-27 08:48:06 51°23.785 2°48.11 9.6 1 2.4 101940 40
2011-01-27 08:48:11 51°23.801 2°48.097 10.3 4 2.4 101950 40
2011-01-27 08:48:16 51°23.818 2°48.086 9.4 1 2.4 101950 40
2011-01-27 08:48:21 51°23.835 2°48.074 13.5 359 2.4 101950 39
2011-01-27 08:48:26 51°23.853 2°48.063 11.6 6 2.4 101950 39
2011-01-27 08:48:31 51°23.869 2°48.05 9.3 5 2.4 101950 40
2011-01-27 08:48:36 51°23.886 2°48.04 8.7 -999 2.4 101950 40
2011-01-27 08:48:41 51°23.903 2°48.027 8.7 7 2.4 101940 40
2011-01-27 08:48:46 51°23.919 2°48.016 10.5 3 2.4 101940 40
2011-01-27 08:48:51 51°23.935 2°48.004 10.2 6 2.4 101950 40
2011-01-27 08:48:55 51°23.948 2°47.994 13.6 7 2.4 101950 40
2011-01-27 08:49:01 51°23.968 2°47.98 9.9 5 2.4 101930 40
2011-01-27 08:49:06 51°23.985 2°47.967 11.6 6 2.4 101930 40
2011-01-27 08:49:11 51°24.002 2°47.956 10.7 8 2.4 101960 40
2011-01-27 08:49:15 51°24.015 2°47.945 9.8 6 2.4 101960 40
2011-01-27 08:49:21 51°24.035 2°47.932 10.2 4 2.4 101930 40
2011-01-27 08:49:26 51°24.052 2°47.92 8.4 6 2.4 101930 40
2011-01-27 08:49:31 51°24.069 2°47.907 10.3 5 2.4 101940 40
2011-01-27 08:49:36 51°24.086 2°47.895 8.6 6 2.4 101940 40
2011-01-27 08:49:41 51°24.102 2°47.884 10.4 5 2.4 101940 40
2011-01-27 08:49:46 51°24.12 2°47.872 12.5 7 2.4 101960 38
2011-01-27 08:49:51 51°24.137 2°47.861 8.1 9 2.4 101940 40
2011-01-27 08:49:55 51°24.15 2°47.851 12 11 2.4 101940 40
2011-01-27 08:50:01 51°24.171 2°47.837 14.3 10 2.4 101950 40
2011-01-27 08:50:06 51°24.188 2°47.826 10 10 2.4 101950 40
2011-01-27 08:50:11 51°24.205 2°47.814 11.2 6 2.4 101940 39
2011-01-27 08:50:16 51°24.221 2°47.802 13.9 8 2.4 101940 39
2011-01-27 08:50:21 51°24.238 2°47.791 12.4 11 2.4 101940 39
2011-01-27 08:50:26 51°24.255 2°47.779 11.6 6 2.4 101940 39
2011-01-27 08:50:31 51°24.272 2°47.769 11.1 9 2.4 101960 40
2011-01-27 08:50:35 51°24.285 2°47.759 11.5 8 2.4 101960 40
2011-01-27 08:50:41 51°24.306 2°47.747 8.2 6 2.4 101950 40
2011-01-27 08:50:46 51°24.323 2°47.734 10.7 5 2.4 101950 40
2011-01-27 08:50:51 51°24.339 2°47.723 8.9 4 2.4 101950 40
2011-01-27 08:50:56 51°24.355 2°47.71 8.6 5 2.4 101950 40
2011-01-27 08:51:01 51°24.372 2°47.698 10.8 3 2.4 101950 40
2011-01-27 08:51:06 51°24.389 2°47.685 11 4 2.4 101950 40
2011-01-27 08:51:11 51°24.405 2°47.672 10.3 4 2.4 101960 39
2011-01-27 08:51:15 51°24.419 2°47.663 11.5 6 2.4 101960 39
2011-01-27 08:51:21 51°24.439 2°47.648 9 6 2.4 101940 39
2011-01-27 08:51:26 51°24.456 2°47.638 10 5 2.4 101940 39
2011-01-27 08:51:31 51°24.473 2°47.624 8.6 359 2.4 101960 38
2011-01-27 08:51:36 51°24.49 2°47.613 9.1 6 2.4 101960 38
2011-01-27 08:51:41 51°24.507 2°47.6 9.8 3 2.3 101960 39
2011-01-27 08:51:46 51°24.524 2°47.589 10.7 2 2.3 101960 39
2011-01-27 08:51:51 51°24.541 2°47.577 10.3 2 2.3 101970 39
2011-01-27 08:51:55 51°24.555 2°47.569 8.9 2 2.3 101970 39
2011-01-27 08:52:01 51°24.576 2°47.554 10.1 2 2.3 101970 39
2011-01-27 08:52:06 51°24.594 2°47.543 9.9 2 2.4 101950 39
2011-01-27 08:52:11 51°24.611 2°47.53 9.6 -999 2.4 101970 39
2011-01-27 08:52:16 51°24.628 2°47.52 7.9 4 2.4 101970 39
2011-01-27 08:52:21 51°24.645 2°47.506 11.6 358 2.4 101950 38
2011-01-27 08:52:26 51°24.663 2°47.495 10.4 3 2.4 101950 38
2011-01-27 08:52:31 51°24.68 2°47.482 10.7 1 2.4 101960 40
2011-01-27 08:52:36 51°24.697 2°47.471 11.1 4 2.4 101960 40
2011-01-27 08:52:41 51°24.714 2°47.459 9.7 5 2.4 101960 40
2011-01-27 08:52:46 51°24.731 2°47.448 10.2 3 2.4 101960 40
2011-01-27 08:52:51 51°24.748 2°47.436 10.8 4 2.4 101960 40
2011-01-27 08:52:56 51°24.765 2°47.426 11 3 2.4 101950 38
2011-01-27 08:53:01 51°24.782 2°47.414 10.2 6 2.4 101960 40
2011-01-27 08:53:06 51°24.798 2°47.402 10 2 2.4 101960 40
2011-01-27 08:53:11 51°24.815 2°47.39 10.4 360 2.4 101940 40
2011-01-27 08:53:16 51°24.832 2°47.379 12 359 2.4 101940 40
2011-01-27 08:53:21 51°24.848 2°47.367 13.3 -999 2.4 101960 39
2011-01-27 08:53:26 51°24.865 2°47.355 10.5 2 2.4 101960 39
2011-01-27 08:53:31 51°24.882 2°47.343 10.8 4 2.4 101970 40
2011-01-27 08:53:36 51°24.898 2°47.331 10.9 4 2.4 101970 40
2011-01-27 08:53:41 51°24.915 2°47.32 11.1 3 2.4 101960 40
2011-01-27 08:53:46 51°24.932 2°47.308 8.9 6 2.4 101960 40
2011-01-27 08:53:51 51°24.949 2°47.296 10.9 5 2.4 101940 40
2011-01-27 08:53:55 51°24.963 2°47.286 9.1 4 2.4 101940 40
2011-01-27 08:54:01 51°24.984 2°47.274 9.7 358 2.4 101940 40
2011-01-27 08:54:06 51°25.001 2°47.262 12.2 2 2.4 101930 40
2011-01-27 08:54:11 51°25.019 2°47.252 10 5 2.4 101930 40
2011-01-27 08:54:16 51°25.036 2°47.24 10.7 3 2.4 101930 40
2011-01-27 08:54:21 51°25.054 2°47.229 9.4 1 2.4 101930 40
2011-01-27 08:54:26 51°25.071 2°47.217 10.8 358 2.4 101950 40
2011-01-27 08:54:31 51°25.089 2°47.205 12.5 359 2.4 101950 40
2011-01-27 08:54:35 51°25.103 2°47.195 10.1 1 2.4 101950 40
2011-01-27 08:54:41 51°25.124 2°47.182 11 3 2.4 101960 40
2011-01-27 08:54:46 51°25.141 2°47.169 10.8 6 2.4 101960 40
2011-01-27 08:54:51 51°25.159 2°47.158 11.9 1 2.5 101950 40
2011-01-27 08:54:56 51°25.175 2°47.145 10 7 2.5 101950 40
2011-01-27 08:55:01 51°25.193 2°47.133 12.9 359 2.5 101950 40
2011-01-27 08:55:06 51°25.211 2°47.122 10.1 1 2.5 101950 40
2011-01-27 08:55:11 51°25.229 2°47.111 11.8 4 2.5 101950 40
2011-01-27 08:55:16 51°25.246 2°47.099 11.8 3 2.5 101950 40
2011-01-27 08:55:21 51°25.264 2°47.089 11.4 1 2.5 101940 40
2011-01-27 08:55:26 51°25.281 2°47.076 11.3 2 2.5 101940 40
2011-01-27 08:55:31 51°25.299 2°47.066 11.3 4 2.4 101940 39
2011-01-27 08:55:36 51°25.316 2°47.053 12.4 356 2.4 101940 39
2011-01-27 08:55:41 51°25.333 2°47.044 13 356 2.4 101930 39
2011-01-27 08:55:46 51°25.35 2°47.032 12.5 360 2.4 101930 39
2011-01-27 08:55:51 51°25.367 2°47.02 11 2 2.4 101940 40
2011-01-27 08:55:55 51°25.38 2°47.01 10.3 360 2.4 101940 40
2011-01-27 08:56:01 51°25.401 2°46.996 11.8 1 2.4 101950 40
2011-01-27 08:56:06 51°25.418 2°46.984 9.3 1 2.4 101950 40
2011-01-27 08:56:11 51°25.436 2°46.973 10.1 -999 2.4 101940 40
2011-01-27 08:56:15 51°25.45 2°46.962 11.3 6 2.4 101940 40
2011-01-27 08:56:21 51°25.471 2°46.949 10.7 1 2.4 101940 39
2011-01-27 08:56:26 51°25.488 2°46.937 11 3 2.4 101940 39
2011-01-27 08:56:31 51°25.505 2°46.925 10.2 4 2.4 101960 40
2011-01-27 08:56:36 51°25.522 2°46.913 10.2 4 2.4 101960 40
2011-01-27 08:56:41 51°25.539 2°46.902 10.6 1 2.4 101960 40
2011-01-27 08:56:46 51°25.557 2°46.89 9.1 1 2.4 101940 39
2011-01-27 08:56:51 51°25.575 2°46.879 8.7 3 2.4 101950 39
2011-01-27 08:56:55 51°25.589 2°46.869 9 5 2.4 101950 39
2011-01-27 08:57:01 51°25.609 2°46.854 8.6 4 2.4 101950 39
2011-01-27 08:57:06 51°25.627 2°46.843 8.8 360 2.4 101950 39
2011-01-27 08:57:11 51°25.644 2°46.829 9.6 5 2.4 101960 40
2011-01-27 08:57:16 51°25.662 2°46.819 9.6 3 2.4 101960 40
2011-01-27 08:57:21 51°25.68 2°46.806 9.3 360 2.4 101960 40
2011-01-27 08:57:26 51°25.697 2°46.794 12 359 2.4 101950 40
2011-01-27 08:57:31 51°25.714 2°46.781 9.7 4 2.4 101940 39
2011-01-27 08:57:35 51°25.728 2°46.772 9.1 6 2.4 101940 39
2011-01-27 08:57:41 51°25.749 2°46.757 9.7 4 2.4 101950 40
2011-01-27 08:57:46 51°25.766 2°46.745 8.8 5 2.4 101950 40
2011-01-27 08:57:51 51°25.783 2°46.733 10.8 5 2.5 101950 41
2011-01-27 08:57:55 51°25.797 2°46.723 10.4 7 2.5 101950 41
2011-01-27 08:58:01 51°25.818 2°46.708 10.8 6 2.5 101940 40
2011-01-27 08:58:06 51°25.835 2°46.695 9.9 7 2.5 101940 40
2011-01-27 08:58:11 51°25.852 2°46.683 10 5 2.5 101960 39
2011-01-27 08:58:16 51°25.869 2°46.67 10.5 360 2.5 101960 39
2011-01-27 08:58:21 51°25.886 2°46.657 8.8 4 2.4 101950 40
2011-01-27 08:58:26 51°25.903 2°46.644 8.9 4 2.4 101950 40
2011-01-27 08:58:31 51°25.92 2°46.632 9.7 4 2.4 101970 40
2011-01-27 08:58:36 51°25.937 2°46.619 10 4 2.4 101970 40
2011-01-27 08:58:41 51°25.954 2°46.606 7.6 8 2.4 101970 40
2011-01-27 08:58:46 51°25.972 2°46.596 9.1 5 2.4 101950 40
2011-01-27 08:58:51 51°25.989 2°46.581 9.1 3 2.4 101970 40
2011-01-27 08:58:55 51°26.003 2°46.573 8.9 7 2.4 101970 40
2011-01-27 08:59:01 51°26.024 2°46.559 7 5 2.4 101960 39
2011-01-27 08:59:06 51°26.041 2°46.546 8.3 8 2.4 101960 39
2011-01-27 08:59:11 51°26.059 2°46.534 7.3 4 2.4 101970 40
2011-01-27 08:59:16 51°26.075 2°46.521 8.1 3 2.4 101970 40
2011-01-27 08:59:21 51°26.092 2°46.509 9.6 6 2.4 101970 40
2011-01-27 08:59:26 51°26.109 2°46.495 7.9 4 2.4 101970 40
2011-01-27 08:59:31 51°26.126 2°46.483 8.3 4 2.4 101970 39
2011-01-27 08:59:35 51°26.14 2°46.473 10.5 6 2.4 101970 39
2011-01-27 08:59:41 51°26.161 2°46.458 9.3 4 2.4 101970 40
2011-01-27 08:59:46 51°26.178 2°46.446 8.4 3 2.4 101970 40
2011-01-27 08:59:51 51°26.196 2°46.436 9.4 -999 2.4 101960 39
2011-01-27 08:59:56 51°26.213 2°46.423 8.8 5 2.4 101960 39
2011-01-27 09:00:01 51°26.23 2°46.411 11.7 2 2.4 101960 40
2011-01-27 09:00:06 51°26.247 2°46.399 9.8 3 2.4 101960 40
2011-01-27 09:00:11 51°26.265 2°46.387 10.1 2 2.5 101970 39
2011-01-27 09:00:16 51°26.281 2°46.374 11.7 4 2.5 101970 39
2011-01-27 09:00:21 51°26.298 2°46.362 10.2 3 2.4 101950 39
2011-01-27 09:00:26 51°26.314 2°46.349 8.8 8 2.4 101950 39
2011-01-27 09:00:31 51°26.331 2°46.338 11.3 4 2.5 101970 40
2011-01-27 09:00:36 51°26.347 2°46.324 7.7 7 2.5 101970 40
2011-01-27 09:00:41 51°26.364 2°46.314 9.4 6 2.4 101960 40
2011-01-27 09:00:46 51°26.38 2°46.3 11.9 9 2.4 101960 40
2011-01-27 09:00:51 51°26.398 2°46.29 8.7 4 2.5 101960 40
2011-01-27 09:00:56 51°26.415 2°46.277 8.8 3 2.5 101960 40
2011-01-27 09:01:01 51°26.432 2°46.267 8.9 -999 2.5 101960 40
2011-01-27 09:01:06 51°26.448 2°46.254 8.8 2 2.4 101970 39
2011-01-27 09:01:11 51°26.465 2°46.243 11.7 -999 2.5 101960 40
2011-01-27 09:01:15 51°26.478 2°46.233 12.3 3 2.5 101960 40
2011-01-27 09:01:21 51°26.498 2°46.22 11.4 3 2.5 101970 40
2011-01-27 09:01:26 51°26.515 2°46.209 10 2 2.5 101970 40
2011-01-27 09:01:31 51°26.533 2°46.198 10.6 3 2.5 101950 40
2011-01-27 09:01:36 51°26.55 2°46.187 11.3 4 2.5 101950 40
2011-01-27 09:01:41 51°26.567 2°46.175 8.8 4 2.5 101950 39
2011-01-27 09:01:46 51°26.584 2°46.163 10.4 5 2.5 101950 39
2011-01-27 09:01:51 51°26.601 2°46.152 9.8 4 2.4 101970 39
2011-01-27 09:01:56 51°26.618 2°46.141 7.9 6 2.4 101970 39
2011-01-27 09:02:01 51°26.635 2°46.129 8.9 2 2.5 101960 40
2011-01-27 09:02:06 51°26.652 2°46.118 10.9 359 2.5 101960 40
2011-01-27 09:02:11 51°26.669 2°46.108 12.8 -999 2.5 101970 40
2011-01-27 09:02:16 51°26.685 2°46.096 10.2 4 2.5 101970 40
2011-01-27 09:02:21 51°26.702 2°46.086 10.7 359 2.5 101950 41
2011-01-27 09:02:26 51°26.72 2°46.076 10.7 1 2.5 101950 41
2011-01-27 09:02:31 51°26.737 2°46.064 12.3 358 2.5 101970 40
2011-01-27 09:02:36 51°26.754 2°46.055 14.5 360 2.5 101970 40
2011-01-27 09:02:41 51°26.772 2°46.043 11.4 357 2.5 101960 40
2011-01-27 09:02:46 51°26.788 2°46.032 11.7 359 2.5 101960 40
2011-01-27 09:02:51 51°26.805 2°46.022 13.8 -999 2.5 101960 41
2011-01-27 09:02:56 51°26.822 2°46.01 10.1 358 2.5 101960 41
2011-01-27 09:03:01 51°26.84 2°46 12.6 355 2.5 101980 40
2011-01-27 09:03:06 51°26.856 2°45.988 13.7 -999 2.5 101980 40
2011-01-27 09:03:11 51°26.874 2°45.977 9.5 359 2.4 101970 40
2011-01-27 09:03:15 51°26.887 2°45.969 11 356 2.4 101970 40
2011-01-27 09:03:21 51°26.909 2°45.957 13.4 358 2.4 101960 40
2011-01-27 09:03:26 51°26.927 2°45.948 13.3 358 2.4 101960 40
2011-01-27 09:03:31 51°26.944 2°45.937 11.2 2 2.4 101960 38
2011-01-27 09:03:36 51°26.962 2°45.926 11.3 5 2.4 101960 38
2011-01-27 09:03:41 51°26.979 2°45.917 12.1 7 2.4 101960 38
2011-01-27 09:03:46 51°26.997 2°45.906 7.7 3 2.4 101960 40
2011-01-27 09:03:51 51°27.014 2°45.896 11.4 359 2.4 101970 39
2011-01-27 09:03:56 51°27.032 2°45.886 12.7 359 2.4 101970 39
2011-01-27 09:04:01 51°27.049 2°45.875 12.4 360 2.4 101960 40
2011-01-27 09:04:06 51°27.066 2°45.864 9.9 357 2.4 101960 40
2011-01-27 09:04:11 51°27.084 2°45.854 11.8 358 2.4 101970 40
2011-01-27 09:04:16 51°27.102 2°45.843 10.7 358 2.4 101970 40
2011-01-27 09:04:21 51°27.119 2°45.832 12.2 360 2.4 101970 40
2011-01-27 09:04:26 51°27.137 2°45.823 13.1 2 2.4 101970 40
2011-01-27 09:04:31 51°27.155 2°45.813 11.8 2 2.4 101970 40
2011-01-27 09:04:36 51°27.172 2°45.802 10.7 6 2.4 101960 40
2011-01-27 09:04:41 51°27.189 2°45.793 13 5 2.5 101970 40
2011-01-27 09:04:46 51°27.206 2°45.783 8.5 4 2.5 101970 40
2011-01-27 09:04:51 51°27.223 2°45.772 9.2 5 2.4 101970 40
2011-01-27 09:04:55 51°27.237 2°45.763 9.4 3 2.4 101970 40
2011-01-27 09:05:01 51°27.257 2°45.75 9.3 6 2.4 101970 40
2011-01-27 09:05:06 51°27.274 2°45.739 12.5 2 2.4 101970 40
2011-01-27 09:05:11 51°27.291 2°45.729 7.4 4 2.4 101970 39
2011-01-27 09:05:16 51°27.309 2°45.719 9.2 5 2.4 101970 39
2011-01-27 09:05:21 51°27.326 2°45.708 11.4 7 2.4 101970 39
2011-01-27 09:05:26 51°27.343 2°45.697 10.3 6 2.4 101970 40
2011-01-27 09:05:31 51°27.361 2°45.687 7.9 6 2.4 101970 40
2011-01-27 09:05:35 51°27.375 2°45.679 8.9 6 2.4 101970 40
2011-01-27 09:05:41 51°27.396 2°45.666 9.5 6 2.4 101970 40
2011-01-27 09:05:46 51°27.414 2°45.656 9.4 6 2.4 101970 40
2011-01-27 09:05:51 51°27.431 2°45.644 10 9 2.4 101980 40
2011-01-27 09:05:56 51°27.448 2°45.634 11.5 2 2.4 101980 40
2011-01-27 09:06:01 51°27.465 2°45.622 8.9 6 2.4 101980 40
2011-01-27 09:06:06 51°27.483 2°45.612 8.9 3 2.4 101980 40
2011-01-27 09:06:11 51°27.501 2°45.602 9.6 2 2.4 102000 38
2011-01-27 09:06:15 51°27.515 2°45.593 10.5 7 2.4 102000 38
2011-01-27 09:06:21 51°27.536 2°45.581 8.6 7 2.4 101980 39
2011-01-27 09:06:26 51°27.554 2°45.572 7.6 6 2.4 101980 39
2011-01-27 09:06:31 51°27.572 2°45.56 10 6 2.4 101980 39
2011-01-27 09:06:36 51°27.589 2°45.55 7.5 4 2.4 101980 39
2011-01-27 09:06:41 51°27.606 2°45.539 10.6 360 2.4 101980 40
2011-01-27 09:06:46 51°27.624 2°45.528 9 7 2.4 101980 40
2011-01-27 09:06:51 51°27.642 2°45.517 9 4 2.4 101990 39
2011-01-27 09:06:55 51°27.656 2°45.509 10.9 357 2.4 101990 39
2011-01-27 09:07:01 51°27.675 2°45.496 9.4 359 2.5 102000 39
2011-01-27 09:07:06 51°27.693 2°45.487 10.6 356 2.5 102000 39
2011-01-27 09:07:11 51°27.709 2°45.475 12.5 1 2.5 101980 40
2011-01-27 09:07:15 51°27.723 2°45.466 11 2 2.5 101980 40
2011-01-27 09:07:21 51°27.743 2°45.454 12.9 -999 2.5 102000 40
2011-01-27 09:07:26 51°27.76 2°45.443 13.2 3 2.5 102000 40
2011-01-27 09:07:31 51°27.777 2°45.433 12.4 1 2.5 101990 40
2011-01-27 09:07:36 51°27.795 2°45.423 11.4 3 2.5 101990 40
2011-01-27 09:07:41 51°27.812 2°45.413 10.3 3 2.5 101990 40
2011-01-27 09:07:46 51°27.83 2°45.402 9.8 1 2.5 101970 39
2011-01-27 09:07:51 51°27.847 2°45.392 11.2 2 2.5 101980 40
2011-01-27 09:07:55 51°27.861 2°45.384 11.1 1 2.5 101980 40
2011-01-27 09:08:01 51°27.882 2°45.372 11.8 -999 2.5 101990 39
2011-01-27 09:08:06 51°27.899 2°45.36 12.7 4 2.5 101990 39
2011-01-27 09:08:11 51°27.916 2°45.35 10.8 5 2.5 101990 40
2011-01-27 09:08:16 51°27.933 2°45.338 12.5 2 2.5 101990 40
2011-01-27 09:08:21 51°27.951 2°45.329 9.6 2 2.5 101980 40
2011-01-27 09:08:26 51°27.969 2°45.318 8.9 4 2.5 101980 40
2011-01-27 09:08:31 51°27.986 2°45.308 13.2 2 2.5 101970 40
2011-01-27 09:08:36 51°28.003 2°45.297 10 3 2.5 101970 40
2011-01-27 09:08:41 51°28.02 2°45.288 9.6 1 2.5 101970 40
2011-01-27 09:08:46 51°28.037 2°45.277 12.1 5 2.4 101980 39
2011-01-27 09:08:51 51°28.055 2°45.267 8.6 4 2.5 101960 38
2011-01-27 09:08:55 51°28.069 2°45.258 9.2 2 2.5 101960 38
2011-01-27 09:09:01 51°28.091 2°45.246 9.5 358 2.5 101980 40
2011-01-27 09:09:06 51°28.108 2°45.234 12.5 8 2.5 101980 40
2011-01-27 09:09:11 51°28.125 2°45.223 11.5 7 2.5 101980 40
2011-01-27 09:09:16 51°28.142 2°45.211 8 6 2.5 101980 40
2011-01-27 09:09:21 51°28.16 2°45.201 10.3 5 2.5 101980 40
2011-01-27 09:09:26 51°28.177 2°45.19 10.1 2 2.5 101980 40
2011-01-27 09:09:31 51°28.194 2°45.18 10.2 4 2.5 101970 40
2011-01-27 09:09:36 51°28.212 2°45.169 8.9 1 2.5 101970 40
2011-01-27 09:09:41 51°28.229 2°45.159 11.9 357 2.5 101970 40
2011-01-27 09:09:46 51°28.247 2°45.148 13.5 360 2.5 101980 40
2011-01-27 09:09:51 51°28.265 2°45.138 11.2 -999 2.5 101990 39
2011-01-27 09:09:55 51°28.278 2°45.129 10.6 5 2.5 101990 39
2011-01-27 09:10:01 51°28.299 2°45.116 9.1 5 2.6 101980 40
2011-01-27 09:10:06 51°28.317 2°45.106 11.3 3 2.6 101980 40
2011-01-27 09:10:11 51°28.334 2°45.095 11.3 4 2.6 101970 40
2011-01-27 09:10:16 51°28.352 2°45.085 11.4 4 2.6 101970 40
2011-01-27 09:10:21 51°28.369 2°45.075 9.2 5 2.6 101970 40
2011-01-27 09:10:26 51°28.386 2°45.065 11.3 3 2.5 101970 39
2011-01-27 09:10:31 51°28.403 2°45.055 7.4 2 2.5 101990 40
2011-01-27 09:10:36 51°28.421 2°45.045 11.5 4 2.5 101990 40
2011-01-27 09:10:41 51°28.438 2°45.035 10.5 5 2.5 101980 39
2011-01-27 09:10:46 51°28.455 2°45.024 9.4 6 2.5 101980 39
2011-01-27 09:10:51 51°28.473 2°45.015 7.3 5 2.5 101990 39
2011-01-27 09:10:56 51°28.491 2°45.005 6.8 5 2.5 101990 39
2011-01-27 09:11:01 51°28.508 2°44.995 9.5 1 2.5 101990 39
2011-01-27 09:11:06 51°28.526 2°44.985 10.3 2 2.5 101990 39
2011-01-27 09:11:11 51°28.543 2°44.974 8.6 1 2.5 101980 39
2011-01-27 09:11:15 51°28.558 2°44.966 12.4 2 2.5 101980 39
2011-01-27 09:11:21 51°28.579 2°44.953 9.3 2 2.5 102000 39
2011-01-27 09:11:26 51°28.597 2°44.942 10.2 5 2.5 102000 39
2011-01-27 09:11:31 51°28.614 2°44.933 10.5 4 2.6 102000 39
2011-01-27 09:11:35 51°28.629 2°44.924 9.6 4 2.6 102000 39
2011-01-27 09:11:41 51°28.649 2°44.913 10.3 4 2.6 101990 40
2011-01-27 09:11:46 51°28.667 2°44.903 9 6 2.6 101990 40
2011-01-27 09:11:51 51°28.684 2°44.894 10.6 4 2.5 101980 39
2011-01-27 09:11:55 51°28.698 2°44.885 8.7 4 2.5 101980 39
2011-01-27 09:12:01 51°28.719 2°44.874 11.6 3 2.5 101990 39
2011-01-27 09:12:06 51°28.736 2°44.863 10.4 3 2.5 101990 39
2011-01-27 09:12:11 51°28.754 2°44.853 9.5 2 2.5 101970 39
2011-01-27 09:12:16 51°28.772 2°44.842 10.4 5 2.5 101970 39
2011-01-27 09:12:21 51°28.79 2°44.832 9.4 360 2.5 101970 39
2011-01-27 09:12:26 51°28.807 2°44.823 9.6 2 2.5 101980 39
2011-01-27 09:12:31 51°28.825 2°44.813 10 4 2.5 101990 40
2011-01-27 09:12:36 51°28.843 2°44.802 11.4 358 2.5 101990 40
2011-01-27 09:12:41 51°28.86 2°44.792 10.4 2 2.5 101980 40
2011-01-27 09:12:46 51°28.878 2°44.781 11.6 5 2.5 101980 40
2011-01-27 09:12:51 51°28.895 2°44.771 9 360 2.5 101990 40
2011-01-27 09:12:56 51°28.912 2°44.76 8.1 5 2.5 101990 40
2011-01-27 09:13:01 51°28.929 2°44.749 9.9 5 2.5 101980 41
2011-01-27 09:13:06 51°28.946 2°44.738 7.5 5 2.5 101980 41
2011-01-27 09:13:11 51°28.963 2°44.727 8.3 1 2.5 101980 39
2011-01-27 09:13:16 51°28.98 2°44.717 11.5 2 2.5 101980 39
2011-01-27 09:13:21 51°28.998 2°44.706 12.4 2 2.5 101980 39
2011-01-27 09:13:26 51°29.016 2°44.696 11.9 4 2.5 101980 39
2011-01-27 09:13:31 51°29.034 2°44.685 10.1 5 2.5 101990 40
2011-01-27 09:13:35 51°29.049 2°44.677 8.6 -999 2.5 101990 40
2011-01-27 09:13:41 51°29.07 2°44.665 9.5 2 2.5 101990 41
2011-01-27 09:13:46 51°29.088 2°44.654 13.2 357 2.5 101990 41
2011-01-27 09:13:51 51°29.105 2°44.644 12 2 2.5 101990 40